Location: Lake Sonoma
(38.7200°N, 123.0564°W)
Time: 09:45:10
(UTC-07:00)

ISS - Visible Passes

Search period start: 21 October 2014 00:00
Search period end: 31 October 2014 00:00
Orbit: 413 x 416 km, 51.6° (Epoch: 20 October)

Date Brightness Start Highest point End Pass type
(mag) Time Alt. Az. Time Alt. Az. Time Alt. Az.
21 Oct -0.9 19:01:17 10° N 19:02:41 12° NNE 19:04:04 10° NE visible
21 Oct -0.6 20:36:53 10° NW 20:37:42 16° NNW 20:37:42 16° NNW visible
22 Oct -2.0 19:48:01 10° NNW 19:50:44 26° NNE 19:50:44 26° NNE visible
23 Oct -1.5 18:59:11 10° NNW 19:01:39 19° NNE 19:03:49 11° ENE visible
23 Oct -0.9 20:35:18 10° NW 20:36:42 23° WNW 20:36:42 23° WNW visible
24 Oct -3.3 19:46:11 10° NW 19:49:30 64° NE 19:49:53 58° ENE visible
25 Oct -2.6 18:57:08 10° NW 19:00:17 37° NNE 19:03:11 11° E visible
25 Oct -0.8 20:34:09 10° WNW 20:36:05 21° WSW 20:36:05 21° WSW visible
26 Oct -2.1 19:44:34 10° WNW 19:47:44 41° SW 19:49:35 21° SSE visible
27 Oct -3.2 18:55:13 10° NW 18:58:33 80° SW 19:01:52 10° SE visible
28 Oct -0.3 19:43:44 10° W 19:45:37 14° SW 19:47:29 10° SSW visible
29 Oct -0.9 18:53:38 10° WNW 18:56:28 26° SW 18:59:17 10° S visible
